Weather History for Houston Clover, TX

Change the Weather History Date:

Tuesday, March 11, 2014

  Actual Average (KHOU) Record (KHOU)
Temperature  
Mean Temperature 67 °F 62 °F  
Max Temperature 77 °F 72 °F 87 °F (1911)
Min Temperature 59 °F 52 °F 27 °F (1948)
Degree Days  
Heating Degree Days 0 5  
Month to date heating degree days 68  
Since 1 July heating degree days 1256  
Cooling Degree Days 2 2  
Month to date cooling degree days 20  
Year to date cooling degree days 58  
Growing Degree Days 17 (Base 50)    
Moisture  
Dew Point 55 °F    
Average Humidity 75    
Maximum Humidity 87    
Minimum Humidity 50    
Precipitation  
Precipitation 0.00 in 0.11 in 2.81 in (2012)
Month to date precipitation 1.26  
Year to date precipitation 7.84  
Sea Level Pressure  
Sea Level Pressure 29.81 in    
Wind  
Wind Speed 3 mph (SW)    
Max Wind Speed 12 mph    
Max Gust Speed 18 mph    
Visibility 8 miles    
Events      
T = Trace of Precipitation, MM = Missing Value Source: NWS Daily Summary

Daily Weather History Graph

Daily Weather History Graph

Search for Another Location

Airport:

Trip Planner

Search our weather history database for the weather conditions in past years. The results will help you decide how hot, cold, wet, or windy it might be!

Date:

Astronomy

Mar. 11, 2014 Rise Set
Actual Time 7:35 AM CDT 7:26 PM CDT
Civil Twilight 7:11 AM CDT 7:50 PM CDT
Nautical Twilight 6:44 AM CDT 8:18 PM CDT
Astronomical Twilight 6:16 AM CDT 8:45 PM CDT
Moon 3:19 PM CDT (3/11) 4:13 AM CDT (3/11)
Length of Visible Light 12h 39m
Length of Day
11h 51m
Waxing Gibbous, 78% of the Moon is Illuminated
Mar 11
Waxing Gibbous
Mar 16
Full
Mar 23
Last Quarter
Mar 30
New
Apr 7
First Quarter

Hourly Weather History & Observations

Time (CDT) Temp. Dew Point Humidity Pressure Visibility Wind Dir Wind Speed Gust Speed Precip Events Conditions
12:53 AM 60.1 °F 54.0 °F 80% 29.92 in 7.0 mi Calm Calm - N/A   Mostly Cloudy
1:53 AM 59.0 °F 54.0 °F 83% 29.93 in 6.0 mi West 3.5 mph - N/A   Haze
2:24 AM 60.1 °F 54.0 °F 80% 29.92 in 6.0 mi Calm Calm - N/A   Haze
2:36 AM 59.0 °F 54.0 °F 83% 29.92 in 6.0 mi West 4.6 mph - N/A   Haze
2:44 AM 60.1 °F 54.0 °F 80% 29.92 in 5.0 mi Calm Calm - N/A   Haze
2:53 AM 60.1 °F 54.0 °F 80% 29.92 in 5.0 mi West 4.6 mph - N/A   Haze
3:53 AM 60.1 °F 55.0 °F 83% 29.89 in 6.0 mi West 3.5 mph - N/A   Haze
4:11 AM 60.1 °F 55.0 °F 83% 29.87 in 6.0 mi Calm Calm - N/A   Haze
4:53 AM 60.1 °F 54.0 °F 80% 29.85 in 6.0 mi Calm Calm - N/A   Haze
5:03 AM 59.0 °F 54.0 °F 83% 29.85 in 6.0 mi SW 3.5 mph - N/A   Haze
5:11 AM 60.1 °F 54.0 °F 80% 29.85 in 6.0 mi Calm Calm - N/A   Haze
5:53 AM 60.1 °F 55.0 °F 83% 29.83 in 6.0 mi Calm Calm - N/A   Haze
6:25 AM 60.1 °F 54.0 °F 80% 29.82 in 6.0 mi Calm Calm - N/A   Haze
6:53 AM 59.0 °F 54.0 °F 83% 29.82 in 6.0 mi WNW 4.6 mph - N/A   Haze
7:53 AM 59.0 °F 55.0 °F 87% 29.83 in 5.0 mi SW 3.5 mph - N/A   Overcast
8:53 AM 60.1 °F 55.9 °F 86% 29.83 in 4.0 mi Calm Calm - N/A   Overcast
9:04 AM 61.0 °F 55.9 °F 83% 29.83 in 4.0 mi Calm Calm - N/A   Haze
9:53 AM 64.0 °F 55.9 °F 75% 29.83 in 7.0 mi West 4.6 mph - N/A   Overcast
10:43 AM 66.9 °F 57.9 °F 73% 29.83 in 10.0 mi WSW 9.2 mph - N/A   Mostly Cloudy
10:53 AM 66.9 °F 57.0 °F 70% 29.83 in 10.0 mi SW 5.8 mph - N/A   Mostly Cloudy
11:53 AM 69.1 °F 57.9 °F 68% 29.82 in 10.0 mi SW 9.2 mph - N/A   Overcast
12:53 PM 70.0 °F 57.0 °F 63% 29.80 in 10.0 mi SW 6.9 mph - N/A   Overcast
1:53 PM 72.0 °F 55.9 °F 57% 29.77 in 10.0 mi SW 8.1 mph - N/A   Mostly Cloudy
2:53 PM 75.0 °F 55.9 °F 51% 29.73 in 10.0 mi SW 11.5 mph - N/A   Partly Cloudy
3:53 PM 75.0 °F 55.9 °F 51% 29.70 in 10.0 mi SW 8.1 mph - N/A   Partly Cloudy
4:53 PM 75.9 °F 55.9 °F 50% 29.69 in 10.0 mi SW 8.1 mph - N/A   Clear
5:53 PM 75.9 °F 55.9 °F 50% 29.67 in 10.0 mi SW 8.1 mph - N/A   Clear
6:53 PM 69.1 °F 57.0 °F 65% 29.68 in 10.0 mi SSW 9.2 mph 18.4 mph N/A   Clear
7:53 PM 64.9 °F 55.0 °F 70% 29.70 in 10.0 mi SSW 6.9 mph - N/A   Clear
8:53 PM 62.1 °F 55.0 °F 78% 29.72 in 10.0 mi SSW 5.8 mph - N/A   Clear
9:53 PM 61.0 °F 55.0 °F 81% 29.73 in 10.0 mi SSW 5.8 mph - N/A   Clear
10:15 PM 61.0 °F 55.9 °F 83% 29.74 in 10.0 mi SSW 5.8 mph - N/A   Scattered Clouds
10:24 PM 61.0 °F 55.9 °F 83% 29.74 in 10.0 mi SSW 8.1 mph - N/A   Mostly Cloudy
10:53 PM 61.0 °F 55.9 °F 83% 29.74 in 10.0 mi SSW 10.4 mph 16.1 mph N/A   Overcast
11:53 PM 61.0 °F 57.0 °F 87% 29.74 in 9.0 mi SSW 6.9 mph - N/A   Overcast